User: anonymous
Location: Unspecified
(0.0000°N, 0.0000°E)
Time: 05:32:38
(UTC+02:00)
Language:

YAOGAN 3 - Orbit

View from above orbital plane
View from above orbital plane
View from above satellite
View from above satellite

Ground track
Ground track

The orbit data is extracted from the following two-line orbital elements,

1 32289U 07055A   14234.81472406  .00000712  00000-0  96488-4 0  5093
2 32289 097.9436 226.2507 0002177 089.1228 271.0253 14.81945693366392
Epoch (UTC): 22 August 2014 19:33:12
Eccentricity: 0.0002177
inclination: 97.9436°
perigee height: 621 km
apogee height: 625 km
right ascension of ascending node: 226.2507°
argument of perigee: 89.1228°
revolutions per day: 14.81945693
mean anomaly at epoch: 271.0253°
orbit number at epoch: 36639

The dashed part of the orbit path shows where the satellite is in the earth's shadow,  

DLR